Fort Indiantown Gap, PA

1:36 PM EST on December 15, 2019 (GMT -0500)
Muir Army Air Field

Weather History for KMUI - October, 2019

Change the Weather History Date:

Tuesday, October 1, 2019

  Actual Average Record
Temperature  
Mean Temperature 72 °F -  
Max Temperature 83 °F 66 °F 83 °F (2019)
Min Temperature 62 °F 48 °F 41 °F (2012)
Cooling Degree Days 8    
Growing Degree Days 22 (Base 50)    
Moisture  
Dew Point 64 °F    
Average Humidity 84    
Maximum Humidity 98    
Minimum Humidity 58    
Precipitation  
Precipitation 0.00 in - - ()
Sea Level Pressure  
Sea Level Pressure 30.08 in    
Wind  
Wind Speed 1 mph (SW)    
Max Wind Speed 9 mph    
Max Gust Speed -    
Visibility 10 miles    
Events      
Averages and records for this station are not official NWS values.
T = Trace of Precipitation, MM = Missing Value Source: NWS Daily Summary

Daily Weather History Graph

Daily Weather History Graph

Search for Another Location

Airport or City:

Astronomy

Oct. 01, 2019 Rise Set
Actual Time 7:02 AM EDT 6:48 PM EDT
Civil Twilight 6:35 AM EDT 7:15 PM EDT
Nautical Twilight 6:03 AM EDT 7:47 PM EDT
Astronomical Twilight 5:31 AM EDT 8:19 PM EDT
Moon 10:16 AM EDT (10/1) 9:00 PM EDT (10/1)
Length of Visible Light 12h 40m
Length of Day
11h 46m
Waxing Crescent, 12% of the Moon is Illuminated
Oct 1
Waxing Crescent
Oct 5
First Quarter
Oct 13
Full
Oct 21
Last Quarter
Oct 27
New

Hourly Weather History & Observations

Time (EDT) Temp. Heat Index Dew Point Humidity Pressure Visibility Wind Dir Wind Speed Gust Speed Precip Events Conditions
12:56 AM 62.8 °F - 61.3 °F 95% 30.19 in 10.0 mi Calm Calm - N/A   Overcast
1:44 AM 62.6 °F - 60.8 °F 94% 30.18 in 10.0 mi Calm Calm - N/A   Overcast
1:56 AM 62.6 °F - 61.3 °F 96% 30.18 in 10.0 mi Calm Calm - N/A   Overcast
2:36 AM 62.6 °F - 60.8 °F 94% 30.17 in 10.0 mi Calm Calm - N/A   Overcast
2:56 AM 62.6 °F - 61.7 °F 97% 30.17 in 10.0 mi Calm Calm - N/A   Overcast
3:56 AM 62.6 °F - 61.2 °F 95% 30.16 in 10.0 mi Calm Calm - N/A   Overcast
4:56 AM 62.4 °F - 61.2 °F 96% 30.16 in 10.0 mi Calm Calm - N/A   Overcast
5:56 AM 62.2 °F - 60.4 °F 94% 30.14 in 10.0 mi Calm Calm - N/A   Overcast
6:56 AM 62.6 °F - 60.4 °F 93% 30.16 in 10.0 mi Calm Calm - N/A   Overcast
7:56 AM 63.0 °F - 60.3 °F 91% 30.15 in 10.0 mi Calm Calm - N/A   Overcast
8:56 AM 64.2 °F - 59.9 °F 86% 30.15 in 10.0 mi Calm Calm - N/A   Overcast
9:56 AM 66.0 °F - 60.6 °F 83% 30.14 in 10.0 mi Calm Calm - N/A   Overcast
10:56 AM 68.5 °F - 61.7 °F 79% 30.13 in 10.0 mi West 6.9 mph - N/A   Overcast
11:56 AM 70.2 °F - 63.0 °F 78% 30.09 in 10.0 mi Calm Calm - N/A   Overcast
12:56 PM 73.2 °F - 64.8 °F 75% 30.07 in 10.0 mi SW 3.5 mph - N/A   Mostly Cloudy
1:50 PM 77.0 °F - 66.2 °F 69% 30.05 in 10.0 mi South 3.5 mph - N/A   Scattered Clouds
1:56 PM 77.2 °F - 66.2 °F 69% 30.05 in 10.0 mi SW 3.5 mph - N/A   Scattered Clouds
2:56 PM 79.9 °F - 66.0 °F 62% 30.02 in 10.0 mi Calm Calm - N/A   Clear
3:56 PM 83.1 °F 85.9 °F 67.3 °F 59% 30.00 in 10.0 mi SW 5.8 mph - N/A   Clear
4:56 PM 83.5 °F 86.2 °F 67.1 °F 58% 29.98 in 10.0 mi SW 9.2 mph - N/A   Clear
5:56 PM 81.9 °F 84.8 °F 68.0 °F 63% 29.97 in 10.0 mi South 4.6 mph - N/A   Clear
6:56 PM 77.0 °F - 68.4 °F 75% 29.99 in 10.0 mi Calm Calm - N/A   Clear
7:56 PM 73.6 °F - 68.0 °F 83% 29.97 in 10.0 mi Calm Calm - N/A   Partly Cloudy
8:56 PM 70.9 °F - 67.8 °F 90% 29.99 in 10.0 mi Calm Calm - N/A   Clear
9:56 PM 69.3 °F - 67.1 °F 93% 29.97 in 10.0 mi Calm Calm - N/A   Partly Cloudy
10:56 PM 67.8 °F - 66.9 °F 97% 29.96 in 9.0 mi Calm Calm - N/A   Clear
11:56 PM 67.5 °F - 66.9 °F 98% 29.92 in 8.0 mi Calm Calm - N/A   Clear